Voltar ao catálogo

STARLINK-31744

AtivoComunicaçõesVLEO
NORAD 59494·PAYLOAD·🇺🇸 United States

Lançado Apr 13, 2024 de Cape Canaveral Space Force Station

Loading…

Próximas Passagens (próximas 24 horas)

TLE

AtualizadoSource: CelesTrak SupGP

Época: Sep 15, 2026, 01:58 UTC

1 59494C 24071L   26258.08243056  .00016770  00000+0  60752-3 0  2587
2 59494  43.0015 357.8161 0001519 272.3715  33.9783 15.27564056    15

Acompanhe STARLINK-31744 em tempo real com AllMySat

Download on the App Store